| time (UTC) | temp F | wind direction | speed knots | gust knots | rain 1hr in | rain 24hr in | rain mn in | humidity % | barometer mb |
| 20260507072037 | 52 | 307 | 0.0 | 0.0 | 0.00 | 0.11 | 0.00 | 15 | 1007.9 |
| 20260507071927 | 53 | 307 | 0.0 | 0.0 | 0.00 | 0.11 | 0.00 | 15 | 1007.7 |
| 20260507070036 | 53 | 307 | 0.0 | 0.0 | 0.00 | 0.11 | 0.00 | 17 | 1006.9 |
| 20260507062036 | 54 | 210 | 0.0 | 0.0 | 0.00 | 0.11 | 0.00 | 100 | 1006.7 |
| 20260507061927 | 54 | 210 | 0.0 | 0.0 | 0.00 | 0.11 | 0.00 | 100 | 1006.8 |
| 20260507060035 | 55 | 210 | 0.0 | 0.0 | 0.00 | 0.11 | 0.00 | 100 | 1006.5 |
| 20260507054035 | 56 | 210 | 0.0 | 0.0 | 0.00 | 0.11 | 0.00 | 100 | 1006.7 |
| 20260507052036 | 56 | 210 | 0.0 | 0.0 | 0.00 | 0.11 | 0.00 | 100 | 1007.1 |
| 20260507051927 | 56 | 210 | 0.0 | 0.0 | 0.00 | 0.11 | 0.00 | 100 | 1007.1 |
| 20260507050035 | 56 | 210 | 0.0 | 0.0 | 0.00 | 0.11 | 0.00 | 100 | 1007.2 |
| 20260507044035 | 57 | 210 | 0.0 | 0.0 | 0.00 | 0.11 | 0.00 | 100 | 1007.0 |
| 20260507042035 | 57 | 210 | 0.0 | 0.0 | 0.00 | 0.11 | 0.00 | 100 | 1007.1 |
| 20260507041927 | 57 | 210 | 0.0 | 0.0 | 0.00 | 0.11 | 0.00 | 100 | 1007.1 |
| 20260507040036 | 58 | 210 | 0.0 | 0.0 | 0.00 | 0.11 | 0.11 | 100 | 1007.1 |
| 20260507034036 | 58 | 210 | 0.0 | 0.0 | 0.00 | 0.11 | 0.11 | 100 | 1006.9 |
| 20260507032036 | 58 | 210 | 0.0 | 0.0 | 0.00 | 0.11 | 0.11 | 100 | 1006.7 |
| 20260507031927 | 58 | 210 | 0.0 | 0.0 | 0.00 | 0.11 | 0.11 | 100 | 1006.7 |
| 20260507030036 | 58 | 210 | 0.0 | 4.3 | 0.00 | 0.11 | 0.11 | 100 | 1006.9 |
| 20260507024035 | 58 | 231 | 0.0 | 4.3 | 0.00 | 0.11 | 0.11 | 100 | 1006.8 |
| 20260507022036 | 57 | 204 | 0.0 | 4.3 | 0.00 | 0.11 | 0.11 | 100 | 1006.8 |
| 20260507021927 | 57 | 205 | 0.0 | 4.3 | 0.00 | 0.11 | 0.11 | 100 | 1006.8 |
| 20260507020035 | 57 | 238 | 6.1 | 3.5 | 0.00 | 0.11 | 0.11 | 100 | 1006.9 |
| 20260507014035 | 57 | 196 | 0.0 | 3.5 | 0.00 | 0.11 | 0.11 | 100 | 1006.8 |
| 20260507012035 | 57 | 192 | 0.0 | 3.5 | 0.00 | 0.11 | 0.11 | 100 | 1006.7 |
| 20260507011927 | 57 | 192 | 0.0 | 3.5 | 0.00 | 0.11 | 0.11 | 100 | 1006.8 |
| 20260507010036 | 57 | 184 | 0.0 | 10.4 | 0.00 | 0.11 | 0.11 | 100 | 1007.0 |
| 20260507004035 | 57 | 220 | 0.0 | 10.4 | 0.00 | 0.11 | 0.11 | 100 | 1007.2 |
| 20260507002035 | 57 | 202 | 0.0 | 10.4 | 0.00 | 0.11 | 0.11 | 100 | 1007.0 |
| 20260507001927 | 57 | 202 | 0.0 | 10.4 | 0.00 | 0.11 | 0.11 | 100 | 1007.0 |
| 20260507000035 | 57 | 221 | 0.0 | 8.7 | 0.02 | 0.11 | 0.11 | 100 | 1006.8 |
| 20260506234035 | 57 | 193 | 0.0 | 8.7 | 0.02 | 0.11 | 0.11 | 100 | 1006.9 |
| 20260506232035 | 57 | 213 | 0.0 | 8.7 | 0.02 | 0.11 | 0.11 | 100 | 1006.6 |
| 20260506231927 | 57 | 213 | 0.0 | 8.7 | 0.02 | 0.11 | 0.11 | 100 | 1006.6 |
| 20260506230035 | 58 | 244 | 0.0 | 10.4 | 0.01 | 0.09 | 0.09 | 100 | 1006.6 |
| 20260506222035 | 58 | 173 | 0.0 | 10.4 | 0.01 | 0.09 | 0.09 | 100 | 1006.5 |
| 20260506221927 | 58 | 213 | 3.5 | 10.4 | 0.01 | 0.09 | 0.09 | 100 | 1006.5 |
| 20260506220035 | 58 | 244 | 4.3 | 15.6 | 0.00 | 0.08 | 0.08 | 100 | 1006.4 |
| 20260506214035 | 58 | 210 | 0.0 | 15.6 | 0.00 | 0.08 | 0.08 | 100 | 1006.8 |
| 20260506212036 | 58 | 184 | 0.0 | 15.6 | 0.00 | 0.08 | 0.08 | 100 | 1006.9 |
| 20260506211927 | 58 | 184 | 0.0 | 15.6 | 0.00 | 0.08 | 0.08 | 100 | 1006.9 |
| 20260506210035 | 59 | 182 | 0.0 | 11.3 | 0.05 | 0.08 | 0.08 | 100 | 1007.0 |
| 20260506201927 | 59 | 186 | 7.0 | 11.3 | 0.05 | 0.08 | 0.08 | 100 | 1007.5 |
| 20260506200035 | 59 | 207 | 0.0 | 11.3 | 0.03 | 0.03 | 0.03 | 100 | 1007.7 |
| 20260506194035 | 59 | 153 | 0.0 | 11.3 | 0.03 | 0.03 | 0.03 | 4 | 1007.8 |
| 20260506192240 | 59 | 181 | 4.3 | 11.3 | 0.03 | 0.03 | 0.03 | 10 | 1008.0 |
| 20260506192037 | 59 | 181 | 4.3 | 11.3 | 0.03 | 0.03 | 0.03 | 10 | 1008.0 |
| 20260506191927 | 59 | 188 | 3.5 | 11.3 | 0.03 | 0.03 | 0.03 | 11 | 1007.9 |
| 20260506190035 | 60 | 206 | 7.8 | 16.5 | 0.00 | 0.00 | 0.00 | 20 | 1007.9 |
| 20260506184035 | 60 | 203 | 0.0 | 16.5 | 0.00 | 0.00 | 0.00 | 30 | 1008.2 |
| 20260506182035 | 62 | 163 | 0.0 | 16.5 | 0.00 | 0.00 | 0.00 | 48 | 1008.6 |
| 20260506181927 | 62 | 208 | 6.1 | 16.5 | 0.00 | 0.00 | 0.00 | 48 | 1008.6 |
| 20260506180035 | 63 | 201 | 0.0 | 17.4 | 0.00 | 0.00 | 0.00 | 59 | 1008.7 |
| 20260506174038 | 64 | 199 | 7.0 | 17.4 | 0.00 | 0.00 | 0.00 | 62 | 1008.8 |
| 20260506172035 | 66 | 227 | 13.9 | 17.4 | 0.00 | 0.00 | 0.00 | 64 | 1009.0 |
| 20260506171927 | 66 | 211 | 2.6 | 17.4 | 0.00 | 0.00 | 0.00 | 64 | 1009.0 |
| 20260506170035 | 66 | 229 | 0.0 | 15.6 | 0.00 | 0.00 | 0.00 | 64 | 1008.8 |
| 20260506164036 | 67 | 167 | 1.7 | 15.6 | 0.00 | 0.00 | 0.00 | 65 | 1009.0 |
| 20260506162037 | 67 | 170 | 3.5 | 15.6 | 0.00 | 0.00 | 0.00 | 65 | 1009.2 |
| 20260506161927 | 67 | 202 | 9.6 | 15.6 | 0.00 | 0.00 | 0.00 | 65 | 1009.3 |
| 20260506160035 | 68 | 180 | 8.7 | 10.4 | 0.00 | 0.00 | 0.00 | 64 | 1009.5 |
| 20260506154036 | 68 | 209 | 0.0 | 10.4 | 0.00 | 0.00 | 0.00 | 64 | 1009.4 |
| 20260506152037 | 68 | 179 | 1.7 | 10.4 | 0.00 | 0.00 | 0.00 | 64 | 1009.6 |
| 20260506151927 | 68 | 147 | 1.7 | 10.4 | 0.00 | 0.00 | 0.00 | 64 | 1009.6 |
| 20260506150036 | 68 | 234 | 0.9 | 15.6 | 0.00 | 0.00 | 0.00 | 64 | 1009.8 |
| 20260506144036 | 67 | 185 | 0.0 | 15.6 | 0.00 | 0.00 | 0.00 | 64 | 1009.8 |
| 20260506142035 | 66 | 199 | 0.0 | 15.6 | 0.00 | 0.00 | 0.00 | 64 | 1009.8 |
| 20260506141926 | 66 | 184 | 0.9 | 15.6 | 0.00 | 0.00 | 0.00 | 63 | 1009.8 |
| 20260506140035 | 66 | 188 | 6.1 | 9.6 | 0.00 | 0.00 | 0.00 | 63 | 1009.8 |
| 20260506134037 | 65 | 176 | 0.0 | 9.6 | 0.00 | 0.00 | 0.00 | 61 | 1009.7 |
| 20260506132035 | 65 | 208 | 0.0 | 9.6 | 0.00 | 0.00 | 0.00 | 60 | 1009.9 |
| 20260506131927 | 65 | 175 | 6.1 | 9.6 | 0.00 | 0.00 | 0.00 | 60 | 1009.9 |
| 20260506130035 | 64 | 171 | 0.0 | 12.2 | 0.00 | 0.00 | 0.00 | 56 | 1010.4 |
| 20260506124036 | 62 | 187 | 8.7 | 12.2 | 0.00 | 0.00 | 0.00 | 45 | 1010.3 |
| 20260506122035 | 61 | 234 | 8.7 | 12.2 | 0.00 | 0.00 | 0.00 | 40 | 1010.4 |
| 20260506121926 | 61 | 205 | 4.3 | 12.2 | 0.00 | 0.00 | 0.00 | 40 | 1010.4 |
| 20260506120036 | 60 | 185 | 0.0 | 8.7 | 0.00 | 0.00 | 0.00 | 34 | 1010.4 |
| 20260506114036 | 59 | 180 | 0.9 | 8.7 | 0.00 | 0.00 | 0.00 | 25 | 1010.8 |
| 20260506112035 | 58 | 208 | 0.0 | 8.7 | 0.00 | 0.00 | 0.00 | 24 | 1010.8 |
| 20260506111926 | 58 | 218 | 0.0 | 8.7 | 0.00 | 0.00 | 0.00 | 24 | 1010.8 |
| 20260506110036 | 58 | 185 | 0.0 | 9.6 | 0.00 | 0.00 | 0.00 | 22 | 1010.7 |
| 20260506104034 | 58 | 188 | 0.0 | 9.6 | 0.00 | 0.00 | 0.00 | 24 | 1010.8 |
| 20260506102036 | 58 | 188 | 0.0 | 9.6 | 0.00 | 0.00 | 0.00 | 26 | 1010.6 |
| 20260506101926 | 58 | 189 | 0.0 | 9.6 | 0.00 | 0.00 | 0.00 | 26 | 1010.6 |
| 20260506100036 | 58 | 216 | 0.0 | 9.6 | 0.00 | 0.00 | 0.00 | 27 | 1010.5 |
| 20260506094035 | 58 | 183 | 0.0 | 9.6 | 0.00 | 0.00 | 0.00 | 30 | 1010.5 |
| 20260506092036 | 58 | 209 | 0.0 | 9.6 | 0.00 | 0.00 | 0.00 | 32 | 1010.5 |
| 20260506091926 | 58 | 209 | 0.0 | 9.6 | 0.00 | 0.00 | 0.00 | 32 | 1010.5 |
| 20260506090035 | 58 | 208 | 8.7 | 7.0 | 0.00 | 0.00 | 0.00 | 33 | 1010.7 |
| 20260506084035 | 58 | 174 | 0.0 | 7.0 | 0.00 | 0.00 | 0.00 | 34 | 1010.7 |
| 20260506082035 | 58 | 205 | 0.0 | 7.0 | 0.00 | 0.00 | 0.00 | 35 | 1010.9 |
| 20260506081926 | 58 | 227 | 0.0 | 7.0 | 0.00 | 0.00 | 0.00 | 35 | 1010.9 |